Weather History for KBPT - November, 2012

Change the Weather History Date:

Tuesday, November 27, 2012

  Actual Average Record
Temperature  
Mean Temperature 58 °F 58 °F  
Max Temperature 67 °F 68 °F 84 °F (1989)
Min Temperature 48 °F 49 °F 29 °F (1956)
Degree Days  
Heating Degree Days 7 8  
Month to date heating degree days 123 135  
Since 1 July heating degree days 168 169  
Cooling Degree Days 0 1  
Month to date cooling degree days 64 60  
Year to date cooling degree days 3135 2851  
Growing Degree Days 7 (Base 50)    
Moisture  
Dew Point 53 °F    
Average Humidity 81    
Maximum Humidity 93    
Minimum Humidity 69    
Precipitation  
Precipitation 0.13 in 0.14 in 4.23 in (1962)
Month to date precipitation 0.26 3.94  
Year to date precipitation 57.36 54.72  
Snow  
Snow 0.00 in 0.00 in 0.00 in ()
Month to date snowfall 0.0 0.0  
Since 1 July snowfall 0.0 0.0  
Since 1 September snowfall 0.0 0.0  
Snow Depth 0.00 in    
Sea Level Pressure  
Sea Level Pressure 30.21 in    
Wind  
Wind Speed 10 mph (NNW)    
Max Wind Speed 22 mph    
Max Gust Speed 29 mph    
Visibility 9 miles    
Events Rain , Thunderstorm    
T = Trace of Precipitation, MM = Missing Value Source: NWS Daily Summary

Daily Weather History Graph

Daily Weather History Graph

Search for Another Location

Airport or City:

Trip Planner

Search our weather history database for the weather conditions in past years. The results will help you decide how hot, cold, wet, or windy it might be!

Date:

Astronomy

Nov. 27, 2012 Rise Set
Actual Time 6:51 AM CST 5:16 PM CST
Civil Twilight 6:25 AM CST 5:42 PM CST
Nautical Twilight 5:56 AM CST 6:11 PM CST
Astronomical Twilight 5:27 AM CST 6:40 PM CST
Moon 4:47 PM CST (11/27) 5:58 AM CST (11/27)
Length of Visible Light 11h 16m
Length of Day
10h 24m
Waxing Gibbous, 99% of the Moon is Illuminated
Nov 27
Waxing Gibbous
Nov 28
Full
Dec 6
Last Quarter
Dec 13
New
Dec 19
First Quarter

Hourly Weather History & Observations

Time (CST) Temp. Dew Point Humidity Pressure Visibility Wind Dir Wind Speed Gust Speed Precip Events Conditions
12:31 AM 66.2 °F 62.6 °F 88% 30.07 in 8.0 mi NW 16.1 mph 24.2 mph 0.01 in Rain , Thunderstorm Light Rain
12:46 AM 62.6 °F 57.2 °F 82% 30.08 in 4.0 mi North 11.5 mph - 0.07 in Rain , Thunderstorm Heavy Thunderstorms and Rain
12:53 AM 62.1 °F 57.9 °F 86% 30.07 in 8.0 mi North 10.4 mph - 0.09 in Rain , Thunderstorm Light Thunderstorms and Rain
1:26 AM 62.6 °F 57.2 °F 82% 30.07 in 10.0 mi NW 6.9 mph - 0.00 in Rain Light Rain
1:53 AM 62.1 °F 59.0 °F 90% 30.06 in 8.0 mi North 9.2 mph - 0.02 in Rain Light Rain
2:53 AM 62.1 °F 60.1 °F 93% 30.09 in 10.0 mi WNW 18.4 mph 25.3 mph 0.02 in   Mostly Cloudy
3:12 AM 62.6 °F 57.2 °F 82% 30.08 in 10.0 mi West 5.8 mph 18.4 mph N/A   Mostly Cloudy
3:53 AM 60.1 °F 57.9 °F 93% 30.09 in 10.0 mi WSW 4.6 mph - 0.00 in   Partly Cloudy
4:24 AM 60.8 °F 57.2 °F 88% 30.11 in 10.0 mi WNW 6.9 mph - N/A   Mostly Cloudy
4:53 AM 60.1 °F 57.0 °F 90% 30.13 in 10.0 mi NW 8.1 mph - N/A   Mostly Cloudy
5:00 AM 60.8 °F 57.2 °F 88% 30.13 in 10.0 mi NW 6.9 mph - N/A   Scattered Clouds
5:43 AM 60.8 °F 57.2 °F 88% 30.15 in 10.0 mi NNW 8.1 mph - N/A   Overcast
5:53 AM 60.1 °F 57.0 °F 90% 30.15 in 10.0 mi NNW 5.8 mph - 0.00 in Rain Light Rain
6:03 AM 60.8 °F 57.2 °F 88% 30.15 in 10.0 mi NNW 5.8 mph - 0.00 in Rain Light Rain
6:37 AM 59.0 °F 57.2 °F 94% 30.17 in 10.0 mi WNW 9.2 mph - 0.00 in Rain Light Rain
6:53 AM 59.0 °F 57.0 °F 93% 30.18 in 10.0 mi NW 6.9 mph - 0.00 in   Overcast
7:53 AM 59.0 °F 55.9 °F 90% 30.20 in 7.0 mi NNW 10.4 mph - N/A   Overcast
8:20 AM 57.2 °F 55.4 °F 94% 30.22 in 6.0 mi NNW 10.4 mph - N/A   Overcast
8:53 AM 57.9 °F 55.0 °F 90% 30.24 in 6.0 mi NNW 11.5 mph - N/A   Overcast
9:53 AM 57.0 °F 55.9 °F 96% 30.26 in 5.0 mi North 15.0 mph 20.7 mph N/A   Overcast
10:53 AM 55.9 °F 53.1 °F 90% 30.26 in 10.0 mi North 17.3 mph 23.0 mph N/A   Overcast
11:32 AM 55.4 °F 51.8 °F 88% 30.26 in 10.0 mi North 15.0 mph - N/A   Overcast
11:53 AM 55.9 °F 51.1 °F 84% 30.25 in 10.0 mi North 16.1 mph - N/A   Overcast
12:27 PM 55.4 °F 51.8 °F 88% 30.24 in 10.0 mi North 12.7 mph - N/A   Overcast
12:53 PM 59.0 °F 51.1 °F 75% 30.23 in 10.0 mi NNE 13.8 mph 21.9 mph N/A   Overcast
1:08 PM 60.8 °F 51.8 °F 72% 30.23 in 10.0 mi North 15.0 mph 19.6 mph N/A   Overcast
1:21 PM 60.8 °F 51.8 °F 72% 30.23 in 10.0 mi North 15.0 mph - N/A   Overcast
1:44 PM 60.8 °F 51.8 °F 72% 30.22 in 10.0 mi North 15.0 mph 21.9 mph N/A   Overcast
1:53 PM 60.1 °F 51.1 °F 72% 30.22 in 10.0 mi North 15.0 mph 23.0 mph N/A   Overcast
2:40 PM 60.8 °F 50.0 °F 68% 30.22 in 10.0 mi North 12.7 mph 19.6 mph N/A   Mostly Cloudy
2:53 PM 61.0 °F 50.0 °F 67% 30.22 in 10.0 mi NNW 16.1 mph 21.9 mph N/A   Mostly Cloudy
3:00 PM 60.8 °F 50.0 °F 68% 30.22 in 10.0 mi North 15.0 mph - N/A   Mostly Cloudy
3:41 PM 60.8 °F 50.0 °F 68% 30.23 in 10.0 mi North 15.0 mph - N/A   Scattered Clouds
3:53 PM 61.0 °F 50.0 °F 67% 30.24 in 10.0 mi North 13.8 mph 17.3 mph N/A   Clear
4:35 PM 57.2 °F 48.2 °F 72% 30.25 in 10.0 mi North 10.4 mph - N/A   Mostly Cloudy
4:49 PM 57.2 °F 48.2 °F 72% 30.26 in 10.0 mi North 10.4 mph - N/A   Scattered Clouds
4:53 PM 57.0 °F 48.9 °F 74% 30.26 in 10.0 mi North 9.2 mph - N/A   Scattered Clouds
5:53 PM 55.0 °F 48.0 °F 77% 30.28 in 10.0 mi North 6.9 mph - N/A   Clear
6:53 PM 53.1 °F 48.0 °F 83% 30.30 in 10.0 mi North 5.8 mph - N/A   Clear
7:53 PM 52.0 °F 46.9 °F 83% 30.31 in 10.0 mi North 4.6 mph - N/A   Clear
8:53 PM 51.1 °F 46.9 °F 86% 30.32 in 10.0 mi North 5.8 mph - N/A   Clear
9:53 PM 51.1 °F 46.0 °F 83% 30.33 in 10.0 mi NNE 6.9 mph - N/A   Clear
10:53 PM 48.9 °F 45.0 °F 86% 30.33 in 10.0 mi NNE 6.9 mph - N/A   Clear
11:53 PM 48.0 °F 44.1 °F 86% 30.34 in 10.0 mi NNE 5.8 mph - N/A   Clear